Tracking 17267 objects as of 30-August-2015
HD Live streaming from Space Station

INTELSAT 501

Track INTELSAT 501 now!
INTELSAT 501 is classified as:


NORAD ID: 12474
Int'l Code: 1981-050A
Perigee: 36,151.7 km
Apogee: 36,241.5 km
Inclination: 15.2 °
Period: 1,456.7 minutes
Semi major axis: 42567 km
RCS: 3.981 m2 (large)
Launch date: May 23, 1981
Source: International Telecommunications Satellite Organization (ITSO)
Your satellite tracking list
Your tracking list is empty





NASA's NSSDC Master Catalog

Two Line Element Set (TLE):
1 12474U 81050A   15241.91874657 +.00000026 +00000-0 +00000-0 0  9990
2 12474 015.2440 359.2491 0010557 171.1528 205.1950 00.98851706098689

Source of the keplerian elements: AFSPC

N2YO: 284